{"data":{"norad_id":65114,"epoch":"2026-05-25T03:57:19.120032Z","epoch_age_seconds":71218,"freshness":"FRESH","line1":"1 65114U 25168J   26145.16480463 -.00000081  00000+0  93131-4 0  9999","line2":"2 65114  50.0027  47.9136 0009829  35.4485 324.7038 13.29321687 39641","mean_motion":13.29321687,"eccentricity":0.0009829,"inclination_deg":50.0027,"raan_deg":47.9136,"arg_perigee_deg":35.4485,"mean_anomaly_deg":324.7038,"bstar":9.3131e-5,"rev_number":3964,"period_min":108.32592397178,"perigee_km":1141.9241134748,"apogee_km":1156.7215940553,"semimajor_km":7527.459853765,"source":"CELESTRAK","updated_at":"2026-05-25T13:38:05.136030Z"}}